SCOUT X-4 DEB

Satellite information

Favourite Embed

Satellite Type and Status

DEBRISIN ORBIT

Key statistics

Satellite SCOUT X-4 DEB at a glance.

Uptime

22472

Days in orbit

Revolutions

≈ 14.4

Per day

Orbit

LEO

Low Earth Orbit

Inclination

89.9

Latest

Satellite identification and parameters

Extended collection of information and parameters for SCOUT X-4 DEB.

Object identification

Identified? True

Debris? True

Object name: SCOUT X-4 DEB

International designator: 1964-026B

Object number (NORAD): 805

Object ID (CCSDS): 805

Country: UNITED STATES OF AMERICA (US)

Current information (Y/N): Y

RCS size: SMALL

Orbital parameters

Period: 100.327 minutes

Inclination: 89.8587 deg

SMA: 7152.162 km

Apoapsis: 796.966 km

Periapsis: 751.088 km

RAAN: 331.9771 deg

Eccentricy: 0.0032073

Argument of periapsis: 91.689 deg

Mean anomaly: 268.7983 deg

Mean motion: 14.35313361 rev/day

Mean motion (dot): 0.00003108 rev/day2

B* drag term: 0.0010746 1/REarth

Two-line elements (TLE)

Creation date: Dec. 12, 2025, 7:06 a.m.

Reference frame: TEME

Reference center: EARTH

Epoch: Dec. 11, 2025, 9:48 p.m. UTC

TLE line 0: 0 SCOUT X-4 DEB

TLE line 1: 1 805U 64026B 25345.90849784 .00003108 00000-0 10746-2 0 9991

TLE line 2: 2 805 89.8587 331.9771 0032073 91.6890 268.7983 14.35313361163169

Live tracking on map

Real-time ground track for satellite SCOUT X-4 DEB.

In-orbit conjunctions

A list of the most updated potential collisions computed for object SCOUT X-4 DEB.

Target Orbit TCA Probability of collision Miss distance Type
COSMOS 1275 DEB LEO 2025-05-11 17:09:05 0.0001163405 147.0 (m) DEBRIS
COSMOS 1023 LEO 2025-04-22 03:48:37 0.0002999219 365.0 (m) PAYLOAD
SAPPHIRE LEO 2025-02-10 05:23:45 0.0001587 298.0 (m) PAYLOAD
COSMOS 494 LEO 2024-11-09 02:13:01 0.0003612971 755.0 (m) PAYLOAD
SL-8 R/B LEO 2024-09-26 18:05:24 0.000141832 547.0 (m) ROCKET BODY

Associated space launch

The KH-4A (Keyhole-4A) was the fifth optical reconnaissance satellite version in the Corona-program.

SCOUT X-4 DEB was lifted into orbit during the mission ‘Thor SLV-2A Agena D | KH-4A 6’, on board a Thor SLV-2A Agena D space rocket.

The launch took place on June 4, 1964, 10:59 p.m. from Space Launch Complex 3W.

For more information about the launch, click the button.

Launch to space Thor SLV-2A Agena D | KH-4A 6
Thor SLV-2A Agena D | KH-4A 6

Agency: N/A

Status: Launch Successful

Launch date: June 4, 1964, 10:59 p.m. UTC

Rocket: Thor SLV-2A Agena D

Launch pad: Space Launch Complex 3W

Location: Vandenberg SFB, CA, USA

...

Latest news about this satellite

There are no fresh news available about this satellite. Check back as we update our databases every day.


Newsletter sign-up

Weekly statistics, charts and insights to help you stay on top of the space industry.